TimePDT,TemperatureF,Dew PointF,Humidity,Sea Level PressureIn,VisibilityMPH,Wind Direction,Wind SpeedMPH,Gust SpeedMPH,PrecipitationIn,Events,Conditions,WindDirDegrees,DateUTC
12:15 AM,53.6,39.2,58,30.19,10.0,SE,13.8,-,N/A,,Overcast,140,2013-04-10 07:15:00
12:35 AM,51.8,39.2,62,30.17,10.0,SE,12.7,-,N/A,,Overcast,130,2013-04-10 07:35:00
12:55 AM,51.8,39.2,62,30.18,10.0,SE,8.1,17.3,N/A,,Overcast,140,2013-04-10 07:55:00
1:15 AM,53.6,39.2,58,30.16,10.0,SE,11.5,17.3,N/A,,Overcast,140,2013-04-10 08:15:00
1:35 AM,53.6,39.2,58,30.16,10.0,SE,11.5,-,N/A,,Overcast,130,2013-04-10 08:35:00
1:55 AM,53.6,39.2,58,30.15,10.0,SE,16.1,19.6,N/A,,Overcast,140,2013-04-10 08:55:00
2:15 AM,53.6,39.2,58,30.14,10.0,ESE,10.4,-,N/A,,Overcast,120,2013-04-10 09:15:00
2:35 AM,51.8,41.0,67,30.13,10.0,SE,13.8,-,N/A,,Overcast,130,2013-04-10 09:35:00
2:55 AM,51.8,41.0,67,30.11,10.0,SE,16.1,24.2,N/A,,Overcast,140,2013-04-10 09:55:00
3:15 AM,51.8,41.0,67,30.12,10.0,SSE,16.1,25.3,N/A,,Overcast,150,2013-04-10 10:15:00
3:35 AM,51.8,41.0,67,30.11,10.0,SSE,17.3,24.2,N/A,,Overcast,150,2013-04-10 10:35:00
3:55 AM,51.8,42.8,71,30.10,10.0,SE,17.3,24.2,N/A,,Overcast,140,2013-04-10 10:55:00
4:15 AM,51.8,42.8,71,30.09,10.0,SE,19.6,26.5,N/A,,Overcast,130,2013-04-10 11:15:00
4:35 AM,50.0,42.8,76,30.08,10.0,SE,19.6,25.3,N/A,,Overcast,130,2013-04-10 11:35:00
4:55 AM,50.0,42.8,76,30.06,10.0,SE,21.9,27.6,N/A,,Overcast,140,2013-04-10 11:55:00
5:15 AM,51.8,44.6,76,30.05,10.0,SE,16.1,26.5,N/A,,Overcast,130,2013-04-10 12:15:00
5:35 AM,51.8,42.8,71,30.02,10.0,SSE,19.6,25.3,N/A,,Overcast,160,2013-04-10 12:35:00
5:55 AM,51.8,42.8,71,30.02,10.0,SSE,21.9,27.6,N/A,,Overcast,150,2013-04-10 12:55:00
6:15 AM,51.8,44.6,76,29.99,10.0,SSE,24.2,33.4,N/A,,Overcast,150,2013-04-10 13:15:00
6:35 AM,51.8,44.6,76,29.98,10.0,SE,21.9,29.9,N/A,,Overcast,140,2013-04-10 13:35:00
6:55 AM,51.8,44.6,76,29.97,10.0,SE,21.9,29.9,N/A,,Overcast,140,2013-04-10 13:55:00
7:15 AM,51.8,44.6,76,29.95,10.0,SSE,19.6,29.9,N/A,,Overcast,150,2013-04-10 14:15:00
7:35 AM,51.8,44.6,76,29.93,10.0,SSE,27.6,31.1,N/A,,Overcast,150,2013-04-10 14:35:00
7:55 AM,51.8,44.6,76,29.92,10.0,SSE,26.5,33.4,N/A,,Overcast,160,2013-04-10 14:55:00
8:15 AM,51.8,44.6,76,29.89,10.0,SSE,28.8,38.0,N/A,,Overcast,160,2013-04-10 15:15:00
8:35 AM,51.8,46.4,82,29.90,10.0,South,24.2,29.9,N/A,,Overcast,170,2013-04-10 15:35:00
8:55 AM,51.8,46.4,82,29.91,10.0,South,20.7,29.9,N/A,,Overcast,180,2013-04-10 15:55:00
9:15 AM,51.8,46.4,82,29.92,10.0,South,15.0,24.2,N/A,,Overcast,190,2013-04-10 16:15:00
9:35 AM,51.8,46.4,82,29.93,8.0,South,11.5,-,0.01,,Overcast,190,2013-04-10 16:35:00
10:15 AM,51.8,46.4,82,29.96,9.0,SW,13.8,18.4,0.02,,Overcast,220,2013-04-10 17:15:00
10:35 AM,51.8,46.4,82,29.97,10.0,SW,13.8,19.6,0.02,,Overcast,220,2013-04-10 17:35:00
10:55 AM,51.8,46.4,82,29.98,4.0,SW,8.1,-,0.02,,Overcast,230,2013-04-10 17:55:00
11:15 AM,51.8,48.2,88,30.00,5.0,West,12.7,-,N/A,,Overcast,280,2013-04-10 18:15:00
11:35 AM,50.0,44.6,82,30.01,10.0,WNW,10.4,-,N/A,,Overcast,290,2013-04-10 18:35:00
11:55 AM,48.2,44.6,87,30.03,10.0,NW,5.8,-,N/A,,Overcast,310,2013-04-10 18:55:00
12:15 PM,48.2,44.6,87,30.05,10.0,Calm,Calm,-,N/A,,Overcast,0,2013-04-10 19:15:00
12:35 PM,50.0,42.8,76,30.05,10.0,WNW,12.7,19.6,N/A,,Overcast,300,2013-04-10 19:35:00
12:55 PM,48.2,42.8,82,30.07,10.0,WNW,10.4,16.1,0.01,,Overcast,300,2013-04-10 19:55:00
1:15 PM,48.2,42.8,82,30.08,10.0,WNW,8.1,-,N/A,,Overcast,290,2013-04-10 20:15:00
1:35 PM,48.2,42.8,82,30.09,10.0,NW,8.1,16.1,N/A,,Overcast,310,2013-04-10 20:35:00
1:55 PM,48.2,42.8,82,30.11,10.0,NW,13.8,19.6,N/A,,Overcast,310,2013-04-10 20:55:00
2:15 PM,50.0,42.8,76,30.12,10.0,NW,13.8,23.0,N/A,,Overcast,310,2013-04-10 21:15:00
2:35 PM,50.0,42.8,76,30.13,10.0,NW,15.0,23.0,N/A,,Overcast,310,2013-04-10 21:35:00
2:55 PM,51.8,42.8,71,30.14,10.0,WNW,18.4,25.3,N/A,,Overcast,300,2013-04-10 21:55:00
3:15 PM,51.8,42.8,71,30.16,10.0,West,11.5,20.7,N/A,,Overcast,270,2013-04-10 22:15:00
3:35 PM,53.6,42.8,67,30.17,10.0,WNW,12.7,18.4,N/A,,Overcast,300,2013-04-10 22:35:00
3:55 PM,53.6,41.0,62,30.17,10.0,West,18.4,21.9,N/A,,Overcast,280,2013-04-10 22:55:00
4:15 PM,53.6,41.0,62,30.17,10.0,NW,17.3,26.5,N/A,,Overcast,320,2013-04-10 23:15:00
4:35 PM,53.6,41.0,62,30.18,10.0,NW,11.5,18.4,N/A,,Mostly Cloudy,310,2013-04-10 23:35:00
4:55 PM,53.6,41.0,62,30.19,10.0,NW,11.5,16.1,N/A,,Partly Cloudy,320,2013-04-10 23:55:00
5:15 PM,51.8,39.2,62,30.19,10.0,NNW,13.8,-,N/A,,Partly Cloudy,340,2013-04-11 00:15:00
5:35 PM,51.8,39.2,62,30.20,10.0,NNW,10.4,-,N/A,,Mostly Cloudy,340,2013-04-11 00:35:00
5:55 PM,51.8,39.2,62,30.20,10.0,NNW,8.1,-,N/A,,Overcast,340,2013-04-11 00:55:00
6:15 PM,51.8,39.2,62,30.21,10.0,North,5.8,-,N/A,,Mostly Cloudy,350,2013-04-11 01:15:00
6:35 PM,51.8,39.2,62,30.21,10.0,North,6.9,-,N/A,,Overcast,10,2013-04-11 01:35:00
6:55 PM,50.0,39.2,66,30.21,10.0,NNW,6.9,-,N/A,,Overcast,340,2013-04-11 01:55:00
7:15 PM,50.0,39.2,66,30.21,10.0,NNE,6.9,-,N/A,,Overcast,20,2013-04-11 02:15:00
7:35 PM,50.0,39.2,66,30.21,10.0,North,5.8,-,N/A,,Overcast,360,2013-04-11 02:35:00
7:55 PM,48.2,37.4,66,30.22,10.0,NNW,4.6,-,N/A,,Overcast,330,2013-04-11 02:55:00
8:15 PM,48.2,37.4,66,30.22,10.0,North,6.9,-,N/A,,Mostly Cloudy,350,2013-04-11 03:15:00
8:35 PM,46.4,37.4,71,30.22,10.0,NNW,6.9,-,N/A,,Partly Cloudy,330,2013-04-11 03:35:00
8:55 PM,46.4,37.4,71,30.24,10.0,NNW,3.5,-,N/A,,Partly Cloudy,330,2013-04-11 03:55:00
9:15 PM,46.4,37.4,71,30.24,10.0,North,5.8,-,N/A,,Mostly Cloudy,350,2013-04-11 04:15:00
9:35 PM,46.4,39.2,76,30.25,10.0,NNW,4.6,-,N/A,,Overcast,330,2013-04-11 04:35:00
9:55 PM,46.4,37.4,71,30.25,10.0,NNW,8.1,-,N/A,,Scattered Clouds,340,2013-04-11 04:55:00
10:15 PM,46.4,37.4,71,30.25,10.0,North,4.6,-,N/A,,Partly Cloudy,350,2013-04-11 05:15:00
10:35 PM,46.4,37.4,71,30.25,10.0,NNW,5.8,-,N/A,,Mostly Cloudy,340,2013-04-11 05:35:00
10:55 PM,46.4,37.4,71,30.26,10.0,NNW,10.4,-,N/A,,Mostly Cloudy,340,2013-04-11 05:55:00
11:15 PM,44.6,39.2,81,30.26,10.0,North,5.8,-,N/A,,Mostly Cloudy,350,2013-04-11 06:15:00
11:35 PM,44.6,39.2,81,30.27,10.0,North,4.6,-,N/A,,Overcast,360,2013-04-11 06:35:00
11:55 PM,44.6,39.2,81,30.27,10.0,NW,5.8,-,N/A,,Overcast,320,2013-04-11 06:55:00